Skip Page Navigation
NASA JPL Caltech
NASA Logo - Jet Propulsion Laboratory + View the NASA Portal
+ Near-Earth Object (NEO) Program
Search JPL
JPL Home Earth Solar System Stars & Galaxies Technology
JPL Solar System Dynamics
BODIES ORBITS EPHEMERIDES TOOLS PHYSICAL DATA DISCOVERY FAQ SITE MAP
JPL Small-Body Database Browser
Search: [ help ]  
8046 Ajiki (1995 BU)
Classification: Main-belt Asteroid          SPK-ID: 2008046
Ephemeris | Orbit Diagram | Orbital Elements | Physical Parameters | Discovery Circumstances | Close-Approach Data ]

[ show orbit diagram ]
Orbital Elements at Epoch 2456800.5 (2014-May-23.0) TDB
Reference: JPL 12 (heliocentric ecliptic J2000)
 Element Value Uncertainty (1-sigma)   Units 
e .0309186310829665 6.7858e-08  
a 2.428178683521021 1.5496e-08 AU
q 2.353102722601711 1.6439e-07 AU
i 22.28412368263169 7.4866e-06 deg
node 130.7702722900637 1.5921e-05 deg
peri 343.87603115499 0.00010679 deg
M 50.59725819969403 0.00010393 deg
tp 2456606.257672635946
(2013-Nov-09.75767264)
0.00039908 JED
period 1382.036109053085
3.78
1.323e-05
3.622e-08
d
yr
n .2604852345331681 2.4936e-09 deg/d
Q 2.503254644440331 1.5975e-08 AU
  Orbit Determination Parameters
   # obs. used (total)      882  
   data-arc span      9064 days (24.82 yr)  
   first obs. used      1989-08-29  
   last obs. used      2014-06-23  
   planetary ephem.      DE431  
   SB-pert. ephem.      SB431-BIG16  
   condition code      0  
   fit RMS      .52205  
   data source      ORB  
   producer      Otto Matic  
   solution date      2014-Jul-14 12:18:40  

Additional Information
 Earth MOID = 1.37037 AU 
 T_jup = 3.407 
[ show covariance matrix ]

Ephemeris | Orbit Diagram | Orbital Elements | Physical Parameters | Discovery Circumstances | Close-Approach Data ]

Physical Parameter Table
Parameter Symbol Value Units Sigma Reference Notes
absolute magnitude H 13.4 mag n/a MPO250289  

8046 Ajiki           Discovered 1995 Jan. 25 by T. Kobayashi at Oizumi.
Osamu Ajiki (b. 1965), an amateur astronomer and computer programmer, contributed to the popularization of astronomy by developing a wide variety of astronomical software that is regularly used by astronomers around the world.
NOTE: some special characters may not display properly (any characters within {} are an attempt to place the proper accent above a character)
Reference: 20030106/MPCPages.arcLast Updated: 2003-10-02

[ show close-approach data ]
Ephemeris | Orbit Diagram | Orbital Elements | Physical Parameters | Discovery Circumstances | Close-Approach Data ]
ABOUT SSD CREDITS/AWARDS PRIVACY/COPYRIGHT GLOSSARY LINKS
FirstGov 2014-Jul-30 02:59 UT
(server date/time)  
NASA Home Page
Site Manager:   Donald K. Yeomans
Webmaster  Alan B. Chamberlin